NOAA 16 DEB

Satellite information

Favourite Embed

Satellite Type and Status

DEBRISIN ORBIT

Key statistics

Satellite NOAA 16 DEB at a glance.

Uptime

9170

Days in orbit

Revolutions

≈ 14.2

Per day

Orbit

SSO

Sun Synchronous Orbit

Inclination

98.9

Latest

Satellite identification and parameters

Extended collection of information and parameters for NOAA 16 DEB.

Object identification

Identified? True

Debris? True

Object name: NOAA 16 DEB

International designator: 2000-055EY

Object number (NORAD): 41248

Object ID (CCSDS): 41248

Country: UNITED STATES OF AMERICA (US)

Current information (Y/N): Y

RCS size: SMALL

Orbital parameters

Period: 101.731 minutes

Inclination: 98.8628 deg

SMA: 7218.739 km

Apoapsis: 892.436 km

Periapsis: 788.771 km

RAAN: 307.5837 deg

Eccentricy: 0.0071803

Argument of periapsis: 16.8091 deg

Mean anomaly: 343.5438 deg

Mean motion: 14.15502988 rev/day

Mean motion (dot): 0.00007776 rev/day2

B* drag term: 0.0038999 1/REarth

Two-line elements (TLE)

Creation date: Oct. 27, 2025, 2:36 p.m.

Reference frame: TEME

Reference center: EARTH

Epoch: Oct. 27, 2025, 6:03 a.m. UTC

TLE line 0: 0 NOAA 16 DEB

TLE line 1: 1 41248U 00055EY 25300.25256426 .00007776 00000-0 38999-2 0 9998

TLE line 2: 2 41248 98.8628 307.5837 0071803 16.8091 343.5438 14.15502988500603

Live tracking on map

Real-time ground track for satellite NOAA 16 DEB.

In-orbit conjunctions

A list of the most updated potential collisions computed for object NOAA 16 DEB.

Target Orbit TCA Probability of collision Miss distance Type
FREJA LEO 2025-10-13 22:31:58 0.0001811174 345.0 (m) PAYLOAD

Associated space launch

The NOAA K, L and M POES satellites begin the fifth generation of improved environmental monitoring in support of NOAA missions. The instrument payload has significant improvements and additions/deletions. The instrument changes have effected the spacecraft subsystems and data formats.

NOAA 16 DEB was lifted into orbit during the mission ‘Titan II SLV | NOAA 16’, on board a Titan II SLV space rocket.

The launch took place on Sept. 21, 2000, 10:22 a.m. from Space Launch Complex 4W.

For more information about the launch, click the button.

Launch to space Titan II SLV | NOAA 16
Titan II SLV | NOAA 16

Agency: N/A

Status: Launch Successful

Launch date: Sept. 21, 2000, 10:22 a.m. UTC

Rocket: Titan II SLV

Launch pad: Space Launch Complex 4W

Location: Vandenberg SFB, CA, USA

...

Latest news about this satellite

There are no fresh news available about this satellite. Check back as we update our databases every day.


Newsletter sign-up

Weekly statistics, charts and insights to help you stay on top of the space industry.